TimePDT,TemperatureF,Dew PointF,Humidity,Sea Level PressureIn,VisibilityMPH,Wind Direction,Wind SpeedMPH,Gust SpeedMPH,PrecipitationIn,Events,Conditions,WindDirDegrees,DateUTC
12:53 AM,66.9,30.9,26,29.90,10.0,Calm,Calm,-,N/A,,Clear,0,2012-10-08 07:53:00
1:53 AM,64.0,30.0,28,29.90,10.0,NW,4.6,-,N/A,,Clear,320,2012-10-08 08:53:00
2:53 AM,63.0,32.0,31,29.90,10.0,NW,3.5,-,N/A,,Clear,320,2012-10-08 09:53:00
3:53 AM,62.1,32.0,32,29.90,10.0,North,3.5,-,N/A,,Clear,360,2012-10-08 10:53:00
4:53 AM,63.0,32.0,31,29.91,10.0,NW,4.6,-,N/A,,Clear,320,2012-10-08 11:53:00
5:53 AM,61.0,33.1,35,29.92,10.0,NW,4.6,-,N/A,,Clear,320,2012-10-08 12:53:00
6:53 AM,61.0,34.0,36,29.93,10.0,Calm,Calm,-,N/A,,Clear,0,2012-10-08 13:53:00
7:53 AM,64.0,35.1,34,29.95,10.0,Calm,Calm,-,N/A,,Clear,0,2012-10-08 14:53:00
8:53 AM,69.1,28.0,22,29.96,10.0,Calm,Calm,-,N/A,,Clear,0,2012-10-08 15:53:00
9:53 AM,73.9,23.0,15,29.95,10.0,SE,8.1,-,N/A,,Clear,140,2012-10-08 16:53:00
10:53 AM,78.1,23.0,13,29.94,10.0,SE,8.1,-,N/A,,Clear,140,2012-10-08 17:53:00
11:53 AM,80.1,28.9,15,29.92,10.0,Variable,6.9,-,N/A,,Clear,0,2012-10-08 18:53:00
12:53 PM,82.9,30.9,15,29.89,10.0,SE,4.6,-,N/A,,Clear,130,2012-10-08 19:53:00
1:53 PM,86.0,33.1,15,29.85,10.0,SSE,8.1,-,N/A,,Clear,150,2012-10-08 20:53:00
2:53 PM,88.0,32.0,14,29.82,10.0,South,6.9,17.3,N/A,,Clear,170,2012-10-08 21:53:00
3:53 PM,89.1,19.9,8,29.81,10.0,SW,9.2,19.6,N/A,,Clear,230,2012-10-08 22:53:00
4:53 PM,88.0,15.1,7,29.81,10.0,West,13.8,-,N/A,,Clear,270,2012-10-08 23:53:00
5:53 PM,86.0,12.9,7,29.81,10.0,WSW,11.5,-,N/A,,Clear,250,2012-10-09 00:53:00
6:53 PM,82.9,17.1,9,29.82,10.0,SSW,8.1,-,N/A,,Clear,210,2012-10-09 01:53:00
7:53 PM,80.1,19.9,11,29.83,10.0,SSW,10.4,-,N/A,,Clear,200,2012-10-09 02:53:00
8:53 PM,80.1,19.0,10,29.84,10.0,SSW,10.4,-,N/A,,Clear,200,2012-10-09 03:53:00
9:53 PM,79.0,21.9,12,29.84,10.0,SSW,8.1,-,N/A,,Clear,200,2012-10-09 04:53:00
10:53 PM,77.0,24.1,14,29.85,10.0,East,6.9,-,N/A,,Clear,100,2012-10-09 05:53:00
11:53 PM,77.0,24.1,14,29.84,10.0,SSE,8.1,-,N/A,,Clear,160,2012-10-09 06:53:00